Flag for Czech Republic Weather past 2 weeks in Ostrava, Czech Republic

Now
48 °F

Light rain. Overcast.


Feels Like: 45 °F
Forecast: 42 / 50 °F
Wind: 7 mph from West

Location: Ostrava / Mosnov

Current Time: Oct 22, 2014 at 7:38:14 AM

Latest Report: Oct 22, 2014 at 7:00 AM


Visibility: 6 mi

Pressure: 29.64 "Hg

Humidity: 85%

Dew point: 44 °F

Location of OstravaLocation

Historic Weather in Ostrava — Graph

°F

Ostrava temperature yesterday

Maximum temperature yesterday: 60 °F (at 1:00 PM)
Minimum temperature yesterday: 49 °F (at 7:00 AM)
Average temperature yesterday: 55 °F

Past Weeks' High & Low Weather Summary

 TemperatureHumidityPressure
High71 °F (Oct 9, 2:00 PM)100% (Oct 11, 2:00 AM)30.36 "Hg (Oct 11, 2:00 AM)
Low40 °F (Oct 7, 7:00 AM)56% (Oct 9, 2:00 PM)29.54 "Hg (Oct 22, 3:00 AM)
Average57 °F85%29.96 "Hg
* Reported Oct 7 6:00 AM — Oct 22 6:00 AM, Ostrava, Weather by CustomWeather, © 2014

Note: Actual official high and low records may vary slightly from our data, if they occured in-between our weather recording intervals... More about our weather records

Advertising

Ostrava weather history for previous 24 hours

 ConditionsComfort  
Time TempWeatherWind HumidityBarometerVisibility
6:00 AM
Oct 22
50 °FLight rain. Overcast.8 mph81%29.64 "Hg12 mi
5:00 AM50 °FRain. Overcast.6 mph87%29.61 "Hg9 mi
4:00 AM51 °FHeavy rain. Overcast.10 mph86%29.59 "Hg4 mi
3:00 AM51 °FOvercast.N/A94%29.54 "Hg16 mi
2:00 AM52 °FOvercast.N/A92%29.57 "Hg16 mi
1:00 AM53 °FOvercast.5 mph85%29.60 "Hg16 mi
12:00 AM55 °FPassing clouds.5 mph82%29.60 "Hg16 mi
11:00 PM
Oct 21
55 °FPassing clouds.6 mph81%29.64 "Hg16 mi
10:00 PM56 °FOvercast.8 mph79%29.66 "Hg16 mi
9:00 PM57 °FOvercast.3 mph75%29.68 "Hg16 mi
8:00 PM55 °FOvercast.2 mph74%29.70 "Hg16 mi
7:00 PM54 °FPassing clouds.3 mph71%29.73 "Hg16 mi
6:00 PM56 °FPassing clouds.3 mph66%29.74 "Hg19 mi
5:00 PM57 °FScattered clouds.6 mph63%29.77 "Hg22 mi
4:00 PM59 °FScattered clouds.7 mph62%29.78 "Hg25 mi
3:00 PM60 °FScattered clouds.8 mph59%29.80 "Hg25 mi
2:00 PM60 °FScattered clouds.7 mph61%29.82 "Hg25 mi
1:00 PM60 °FScattered clouds.6 mph62%29.84 "Hg25 mi
12:00 PM58 °FScattered clouds.6 mph68%29.86 "Hg19 mi
11:00 AM57 °FScattered clouds.6 mph69%29.88 "Hg12 mi
10:00 AM56 °FScattered clouds.5 mph73%29.89 "Hg11 mi
9:00 AM53 °FPartly sunny.5 mph82%29.89 "Hg7 mi
8:00 AM50 °FFog.6 mph94%29.90 "Hg5 mi
7:00 AM49 °FOvercast.6 mph96%29.90 "Hg7 mi
Weather by CustomWeather, © 2014

See weather overviewHow to use our weather pages